Telluride, CO

5:07 AM MDT on June 24, 2018 (GMT -0600)
Telluride Regional

Weather History for KTEX - October, 2017

Change the Weather History Date:

Tuesday, October 10, 2017

  Actual Average Record
Temperature  
Mean Temperature 37 °F -  
Max Temperature 51 °F 53 °F 66 °F (1996)
Min Temperature 23 °F 33 °F 23 °F (2017)
Degree Days  
Heating Degree Days 28    
Moisture  
Dew Point 24 °F    
Average Humidity 59    
Maximum Humidity 89    
Minimum Humidity 35    
Precipitation  
Precipitation 0.00 in - - ()
Sea Level Pressure  
Sea Level Pressure 30.36 in    
Wind  
Wind Speed 5 mph (SW)    
Max Wind Speed 14 mph    
Max Gust Speed 18 mph    
Visibility 10 miles    
Events      
Averages and records for this station are not official NWS values.
T = Trace of Precipitation, MM = Missing Value Source: NWS Daily Summary

Daily Weather History Graph

Daily Weather History Graph

Search for Another Location

Airport or City:

Astronomy

Oct. 10, 2017 Rise Set
Actual Time 7:15 AM MDT 6:40 PM MDT
Civil Twilight 6:49 AM MDT 7:07 PM MDT
Nautical Twilight 6:18 AM MDT 7:37 PM MDT
Astronomical Twilight 5:48 AM MDT 8:07 PM MDT
Moon 10:51 PM MDT (10/10) 12:30 PM MDT (10/10)
Length of Visible Light 12h 17m
Length of Day
11h 24m
Waning Gibbous, 70% of the Moon is Illuminated
Oct 10
Waning Gibbous
Oct 12
Last Quarter
Oct 19
New
Oct 27
First Quarter
Nov 3
Full

Hourly Weather History & Observations

Time (MDT) Temp. Windchill Dew Point Humidity Pressure Visibility Wind Dir Wind Speed Gust Speed Precip Events Conditions
12:15 AM 27.0 °F 20.5 °F 23.4 °F 86% 30.37 in 10.0 mi SSE 5.8 mph - N/A   Clear
12:35 AM 26.6 °F - 22.3 °F 84% 30.37 in 10.0 mi Calm Calm - N/A   Clear
12:55 AM 26.2 °F 20.7 °F 22.1 °F 84% 30.36 in 10.0 mi SSE 4.6 mph - N/A   Clear
1:15 AM 25.2 °F 20.9 °F 22.1 °F 88% 30.37 in 10.0 mi East 3.5 mph - N/A   Clear
1:35 AM 25.5 °F - 21.7 °F 86% 30.37 in 10.0 mi Calm Calm - N/A   Clear
1:55 AM 25.7 °F 19.0 °F 21.7 °F 85% 30.37 in 10.0 mi SSE 5.8 mph - N/A   Clear
2:15 AM 25.7 °F 21.5 °F 21.2 °F 83% 30.37 in 10.0 mi East 3.5 mph - N/A   Clear
2:35 AM 25.5 °F 19.9 °F 21.7 °F 86% 30.38 in 10.0 mi SE 4.6 mph - N/A   Clear
2:55 AM 24.1 °F - 21.2 °F 89% 30.38 in 10.0 mi Calm Calm - N/A   Clear
3:15 AM 24.8 °F - 21.0 °F 86% 30.38 in 10.0 mi Calm Calm - N/A   Clear
3:35 AM 25.5 °F - 20.3 °F 81% 30.38 in 10.0 mi Calm Calm - N/A   Clear
3:55 AM 25.7 °F 21.5 °F 20.3 °F 80% 30.37 in 10.0 mi SSE 3.5 mph - N/A   Clear
4:15 AM 25.3 °F 21.1 °F 20.3 °F 81% 30.37 in 10.0 mi SE 3.5 mph - N/A   Clear
4:35 AM 23.4 °F - 19.4 °F 85% 30.37 in 10.0 mi Calm Calm - N/A   Clear
4:55 AM 25.3 °F 17.6 °F 20.1 °F 81% 30.37 in 10.0 mi SSE 6.9 mph - N/A   Clear
5:15 AM 24.8 °F 17.9 °F 19.4 °F 80% 30.37 in 10.0 mi East 5.8 mph - N/A   Clear
5:35 AM 25.2 °F - 19.4 °F 79% 30.36 in 10.0 mi Calm Calm - N/A   Clear
5:55 AM 25.5 °F 21.3 °F 19.8 °F 79% 30.36 in 10.0 mi SE 3.5 mph - N/A   Clear
6:15 AM 24.8 °F - 19.6 °F 81% 30.37 in 10.0 mi Calm Calm - N/A   Clear
9:35 AM 33.3 °F 27.9 °F 19.4 °F 57% 30.40 in 10.0 mi SE 5.8 mph - N/A   Clear
9:55 AM 37.4 °F - 16.9 °F 43% 30.39 in 10.0 mi Calm Calm - N/A   Clear
10:15 AM 37.9 °F - 18.7 °F 46% 30.39 in 10.0 mi Calm Calm - N/A   Clear
10:35 AM 41.0 °F - 21.7 °F 46% 30.40 in 10.0 mi Calm Calm - N/A   Clear
10:55 AM 41.0 °F 38.0 °F 21.0 °F 45% 30.40 in 10.0 mi WSW 4.6 mph - N/A   Clear
11:15 AM 42.8 °F 40.1 °F 20.8 °F 42% 30.40 in 10.0 mi West 4.6 mph - N/A   Clear
11:35 AM 43.2 °F 37.9 °F 19.9 °F 40% 30.40 in 10.0 mi West 9.2 mph - N/A   Clear
11:55 AM 43.7 °F 38.1 °F 18.7 °F 37% 30.40 in 10.0 mi West 10.4 mph - N/A   Clear
12:15 PM 45.5 °F 40.8 °F 19.4 °F 35% 30.39 in 10.0 mi West 9.2 mph - N/A   Clear
12:35 PM 46.0 °F 41.0 °F 19.6 °F 35% 30.39 in 10.0 mi West 10.4 mph - N/A   Clear
12:55 PM 46.9 °F - 21.4 °F 36% 30.38 in 10.0 mi West 10.4 mph - N/A   Clear
1:15 PM 48.2 °F - 22.8 °F 37% 30.37 in 10.0 mi West 10.4 mph - N/A   Clear
1:35 PM 48.2 °F - 23.7 °F 38% 30.37 in 10.0 mi West 12.7 mph - N/A   Clear
1:55 PM 49.1 °F - 24.3 °F 38% 30.36 in 10.0 mi West 11.5 mph 18.4 mph N/A   Clear
2:15 PM 50.0 °F - 24.6 °F 37% 30.35 in 10.0 mi West 11.5 mph 16.1 mph N/A   Clear
2:35 PM 50.7 °F - 25.5 °F 38% 30.35 in 10.0 mi West 11.5 mph 18.4 mph N/A   Clear
2:55 PM 50.4 °F - 25.2 °F 37% 30.35 in 10.0 mi West 13.8 mph - N/A   Clear
3:15 PM 50.9 °F - 25.9 °F 38% 30.35 in 10.0 mi West 11.5 mph - N/A   Clear
3:35 PM 50.9 °F - 26.4 °F 39% 30.35 in 10.0 mi West 13.8 mph - N/A   Clear
3:55 PM 50.7 °F - 26.8 °F 40% 30.34 in 10.0 mi West 13.8 mph - N/A   Clear
4:15 PM 51.4 °F - 27.7 °F 40% 30.34 in 10.0 mi West 8.1 mph - N/A   Clear
4:35 PM 51.8 °F - 28.0 °F 40% 30.34 in 10.0 mi West 10.4 mph - N/A   Clear
4:55 PM 50.7 °F - 28.6 °F 42% 30.33 in 10.0 mi West 10.4 mph - N/A   Clear
5:15 PM 50.0 °F - 28.6 °F 44% 30.33 in 10.0 mi West 10.4 mph - N/A   Clear
5:35 PM 49.3 °F - 28.8 °F 45% 30.33 in 10.0 mi West 9.2 mph - N/A   Clear
5:55 PM 48.7 °F - 28.4 °F 45% 30.33 in 10.0 mi West 8.1 mph - N/A   Clear
6:15 PM 48.0 °F - 28.2 °F 46% 30.33 in 10.0 mi West 8.1 mph - N/A   Clear
6:35 PM 46.4 °F 45.2 °F 28.4 °F 50% 30.33 in 10.0 mi West 3.5 mph - N/A   Clear
6:55 PM 45.5 °F 44.2 °F 28.6 °F 52% 30.34 in 10.0 mi West 3.5 mph - N/A   Clear
7:15 PM 44.6 °F - 29.5 °F 55% 30.34 in 10.0 mi Calm Calm - N/A   Clear
7:35 PM 44.2 °F - 29.8 °F 57% 30.34 in 10.0 mi Calm Calm - N/A   Clear
7:55 PM 42.8 °F - 29.5 °F 59% 30.34 in 10.0 mi Calm Calm - N/A   Clear
8:15 PM 41.9 °F - 29.3 °F 61% 30.35 in 10.0 mi Calm Calm - N/A   Clear
8:35 PM 39.4 °F - 29.3 °F 67% 30.35 in 10.0 mi Calm Calm - N/A   Clear
8:55 PM 39.4 °F - 29.1 °F 67% 30.35 in 10.0 mi Calm Calm - N/A   Clear
9:15 PM 39.2 °F - 27.9 °F 64% 30.35 in 10.0 mi Calm Calm - N/A   Clear
9:35 PM 38.5 °F 35.0 °F 28.8 °F 68% 30.36 in 10.0 mi SE 4.6 mph - N/A   Clear
9:55 PM 38.1 °F 33.7 °F 26.4 °F 63% 30.35 in 10.0 mi SE 5.8 mph - N/A   Clear
10:15 PM 38.1 °F - 25.7 °F 61% 30.35 in 10.0 mi Calm Calm - N/A   Clear
10:35 PM 37.4 °F 34.9 °F 23.9 °F 58% 30.35 in 10.0 mi SE 3.5 mph - N/A   Clear
10:55 PM 37.6 °F - 24.3 °F 59% 30.36 in 10.0 mi Calm Calm - N/A   Clear
11:15 PM 35.1 °F - 25.7 °F 69% 30.36 in 10.0 mi Calm Calm - N/A   Clear
11:35 PM 37.0 °F - 24.4 °F 60% 30.36 in 10.0 mi Calm Calm - N/A   Clear
11:55 PM 38.1 °F 35.7 °F 21.6 °F 51% 30.35 in 10.0 mi SSE 3.5 mph - N/A   Clear